contact:dominique.lefevre@mio.osupytheas.fr, maurice.libes@osupytheas.fr, didier.mallarino@osupytheas.fr
Project:EMSO http://www.emso-fr.org/EMSO-France
Depth: 2436.0 m
Title:EMSO Ligure Ouest : Data MII capteur MICROCAT
DateTime_Computer,Latitude,Longitude,Temperature,Conductivity,Pressure,DateTime_Instrument
DateTime_Computer,Latitude,Longitude,degC,S m-1,dbar,DateTime_Instrument
2020-03-09T00:01:44Z,42.805,6.029,13.2992,4.59994,2469.9,2020-3-09T02:02:21Z
2020-03-09T00:04:47Z,42.805,6.029,13.2991,4.59990,2469.876,2020-3-09T02:05:24Z
2020-03-09T00:07:50Z,42.805,6.029,13.3002,4.59988,2469.853,2020-3-09T02:08:27Z
2020-03-09T00:10:53Z,42.805,6.029,13.2982,4.59985,2469.876,2020-3-09T02:11:30Z
2020-03-09T00:13:57Z,42.805,6.029,13.2993,4.59990,2469.876,2020-3-09T02:14:33Z
2020-03-09T00:17:00Z,42.805,6.029,13.2985,4.59990,2469.853,2020-3-09T02:17:36Z
2020-03-09T00:20:03Z,42.805,6.029,13.2983,4.59982,2469.89,2020-3-09T02:20:40Z
2020-03-09T00:23:06Z,42.805,6.029,13.2990,4.59994,2469.9,2020-3-09T02:23:43Z
2020-03-09T00:26:10Z,42.805,6.029,13.2990,4.59995,2469.853,2020-3-09T02:26:46Z
2020-03-09T00:29:13Z,42.805,6.029,13.2988,4.60000,2469.9,2020-3-09T02:29:49Z
2020-03-09T00:32:16Z,42.805,6.029,13.2979,4.59981,2469.89,2020-3-09T02:32:53Z
2020-03-09T00:35:19Z,42.805,6.029,13.2985,4.59984,2469.853,2020-3-09T02:35:56Z
2020-03-09T00:38:22Z,42.805,6.029,13.2983,4.59994,2469.876,2020-3-09T02:38:59Z
2020-03-09T00:41:26Z,42.805,6.029,13.2988,4.59991,2469.914,2020-3-09T02:42:02Z
2020-03-09T00:44:29Z,42.805,6.029,13.2991,4.59983,2469.876,2020-3-09T02:45:05Z
2020-03-09T00:47:32Z,42.805,6.029,13.2986,4.59988,2469.853,2020-3-09T02:48:09Z
2020-03-09T00:50:35Z,42.805,6.029,13.2998,4.59981,2469.867,2020-3-09T02:51:12Z
2020-03-09T00:53:38Z,42.805,6.029,13.2979,4.59990,2469.876,2020-3-09T02:54:15Z
2020-03-09T00:56:42Z,42.805,6.029,13.2993,4.59988,2469.853,2020-3-09T02:57:18Z
2020-03-09T00:59:45Z,42.805,6.029,13.2997,4.59988,2469.876,2020-3-09T03:00:21Z
2020-03-09T01:02:48Z,42.805,6.029,13.3000,4.59986,2469.876,2020-3-09T03:03:25Z
2020-03-09T01:05:51Z,42.805,6.029,13.2991,4.59993,2469.876,2020-3-09T03:06:28Z
2020-03-09T01:08:54Z,42.805,6.029,13.2995,4.59985,2469.89,2020-3-09T03:09:31Z
2020-03-09T01:11:58Z,42.805,6.029,13.2991,4.59987,2469.914,2020-3-09T03:12:34Z
2020-03-09T01:15:01Z,42.805,6.029,13.2993,4.59986,2469.876,2020-3-09T03:15:38Z
2020-03-09T01:18:04Z,42.805,6.029,13.2986,4.59986,2469.89,2020-3-09T03:18:41Z
2020-03-09T01:21:07Z,42.805,6.029,13.2993,4.59983,2469.853,2020-3-09T03:21:44Z
2020-03-09T01:24:10Z,42.805,6.029,13.2993,4.59988,2469.853,2020-3-09T03:24:47Z
2020-03-09T01:27:14Z,42.805,6.029,13.2990,4.59988,2469.867,2020-3-09T03:27:50Z
2020-03-09T01:30:17Z,42.805,6.029,13.2996,4.59986,2469.853,2020-3-09T03:30:53Z
2020-03-09T01:33:20Z,42.805,6.029,13.2993,4.59983,2469.844,2020-3-09T03:33:57Z
2020-03-09T01:36:23Z,42.805,6.029,13.2993,4.59986,2469.876,2020-3-09T03:37:00Z
2020-03-09T01:39:26Z,42.805,6.029,13.2994,4.60000,2469.89,2020-3-09T03:40:03Z
2020-03-09T01:42:30Z,42.805,6.029,13.2982,4.59982,2469.853,2020-3-09T03:43:06Z
2020-03-09T01:45:33Z,42.805,6.029,13.2988,4.59978,2469.876,2020-3-09T03:46:10Z
2020-03-09T01:48:36Z,42.805,6.029,13.2984,4.59977,2469.914,2020-3-09T03:49:13Z
2020-03-09T01:51:39Z,42.805,6.029,13.2986,4.59981,2469.937,2020-3-09T03:52:16Z
2020-03-09T01:54:42Z,42.805,6.029,13.2994,4.59984,2469.867,2020-3-09T03:55:19Z
2020-03-09T01:57:46Z,42.805,6.029,13.2990,4.59990,2469.89,2020-3-09T03:58:22Z
2020-03-09T02:00:49Z,42.805,6.029,13.2992,4.59980,2469.914,2020-3-09T04:01:26Z
2020-03-09T02:03:52Z,42.805,6.029,13.2990,4.59986,2469.9,2020-3-09T04:04:29Z
2020-03-09T02:06:55Z,42.805,6.029,13.2991,4.59988,2469.876,2020-3-09T04:07:32Z
2020-03-09T02:09:59Z,42.805,6.029,13.2997,4.59990,2469.876,2020-3-09T04:10:35Z
2020-03-09T02:13:02Z,42.805,6.029,13.2993,4.59989,2469.914,2020-3-09T04:13:38Z
2020-03-09T02:16:05Z,42.805,6.029,13.2991,4.59990,2469.914,2020-3-09T04:16:42Z
2020-03-09T02:19:08Z,42.805,6.029,13.2982,4.59980,2469.9,2020-3-09T04:19:45Z
2020-03-09T02:22:11Z,42.805,6.029,13.2988,4.59983,2469.914,2020-3-09T04:22:48Z
2020-03-09T02:25:15Z,42.805,6.029,13.2992,4.59991,2469.923,2020-3-09T04:25:51Z
2020-03-09T02:28:18Z,42.805,6.029,13.2991,4.59994,2469.876,2020-3-09T04:28:55Z
2020-03-09T02:31:21Z,42.805,6.029,13.2994,4.59981,2469.9,2020-3-09T04:31:58Z
2020-03-09T02:34:24Z,42.805,6.029,13.2996,4.59989,2469.923,2020-3-09T04:35:01Z
2020-03-09T02:37:28Z,42.805,6.029,13.2990,4.59986,2469.923,2020-3-09T04:38:04Z
2020-03-09T02:40:31Z,42.805,6.029,13.3004,4.59989,2469.923,2020-3-09T04:41:07Z
2020-03-09T02:43:34Z,42.805,6.029,13.2995,4.59987,2469.9,2020-3-09T04:44:11Z
2020-03-09T02:46:37Z,42.805,6.029,13.2993,4.59983,2469.923,2020-3-09T04:47:14Z
2020-03-09T02:49:41Z,42.805,6.029,13.2996,4.59985,2469.923,2020-3-09T04:50:17Z
2020-03-09T02:52:44Z,42.805,6.029,13.2991,4.59988,2469.937,2020-3-09T04:53:21Z
2020-03-09T02:55:47Z,42.805,6.029,13.2995,4.59985,2469.914,2020-3-09T04:56:24Z
2020-03-09T02:58:50Z,42.805,6.029,13.2992,4.59984,2469.96,2020-3-09T04:59:27Z
2020-03-09T03:01:53Z,42.805,6.029,13.2983,4.59994,2469.9,2020-3-09T05:02:30Z
2020-03-09T03:04:57Z,42.805,6.029,13.2995,4.59989,2469.923,2020-3-09T05:05:34Z
2020-03-09T03:08:00Z,42.805,6.029,13.2990,4.59988,2469.96,2020-3-09T05:08:37Z
2020-03-09T03:11:03Z,42.805,6.029,13.3007,4.59988,2469.947,2020-3-09T05:11:40Z
2020-03-09T03:14:07Z,42.805,6.029,13.2985,4.59984,2469.947,2020-3-09T05:14:43Z
2020-03-09T03:17:10Z,42.805,6.029,13.2994,4.59981,2469.96,2020-3-09T05:17:47Z
2020-03-09T03:20:13Z,42.805,6.029,13.2992,4.59986,2469.947,2020-3-09T05:20:50Z
2020-03-09T03:23:16Z,42.805,6.029,13.2991,4.59988,2469.923,2020-3-09T05:23:53Z
2020-03-09T03:26:20Z,42.805,6.029,13.2990,4.59988,2469.993,2020-3-09T05:26:56Z
2020-03-09T03:29:23Z,42.805,6.029,13.2982,4.59989,2469.947,2020-3-09T05:29:59Z
2020-03-09T03:32:26Z,42.805,6.029,13.2994,4.59986,2469.96,2020-3-09T05:33:03Z
2020-03-09T03:35:29Z,42.805,6.029,13.2993,4.59986,2469.947,2020-3-09T05:36:06Z
2020-03-09T03:38:32Z,42.805,6.029,13.2986,4.59986,2469.97,2020-3-09T05:39:09Z
2020-03-09T03:41:36Z,42.805,6.029,13.2989,4.59987,2469.984,2020-3-09T05:42:12Z
2020-03-09T03:44:39Z,42.805,6.029,13.2988,4.59985,2469.97,2020-3-09T05:45:16Z
2020-03-09T03:47:42Z,42.805,6.029,13.2988,4.59985,2469.984,2020-3-09T05:48:19Z
2020-03-09T03:50:45Z,42.805,6.029,13.2990,4.59984,2469.984,2020-3-09T05:51:22Z
2020-03-09T03:53:49Z,42.805,6.029,13.2982,4.59984,2469.993,2020-3-09T05:54:25Z
2020-03-09T03:56:52Z,42.805,6.029,13.2983,4.59979,2470.017,2020-3-09T05:57:29Z
2020-03-09T03:59:55Z,42.805,6.029,13.2988,4.59976,2470.007,2020-3-09T06:00:32Z
2020-03-09T04:02:59Z,42.805,6.029,13.2982,4.59988,2470.007,2020-3-09T06:03:35Z
2020-03-09T04:06:02Z,42.805,6.029,13.2996,4.59985,2469.97,2020-3-09T06:06:39Z
2020-03-09T04:09:05Z,42.805,6.029,13.2986,4.60000,2470.03,2020-3-09T06:09:42Z
2020-03-09T04:12:08Z,42.805,6.029,13.2982,4.59991,2470.03,2020-3-09T06:12:45Z
2020-03-09T04:15:12Z,42.805,6.029,13.2987,4.59984,2470.007,2020-3-09T06:15:48Z
2020-03-09T04:18:15Z,42.805,6.029,13.2990,4.59985,2469.993,2020-3-09T06:18:51Z
2020-03-09T04:21:18Z,42.805,6.029,13.2991,4.59986,2470.017,2020-3-09T06:21:55Z
2020-03-09T04:24:21Z,42.805,6.029,13.2983,4.59982,2470.03,2020-3-09T06:24:58Z
2020-03-09T04:27:24Z,42.805,6.029,13.2993,4.59986,2470.04,2020-3-09T06:28:01Z
2020-03-09T04:30:28Z,42.805,6.029,13.2992,4.59979,2470.03,2020-3-09T06:31:04Z
2020-03-09T04:33:31Z,42.805,6.029,13.2996,4.60018,2470.04,2020-3-09T06:34:08Z
2020-03-09T04:36:34Z,42.805,6.029,13.2991,4.60008,2470.053,2020-3-09T06:37:11Z
2020-03-09T04:39:37Z,42.805,6.029,13.2986,4.59988,2470.053,2020-3-09T06:40:14Z
2020-03-09T04:42:41Z,42.805,6.029,13.2990,4.59991,2470.1,2020-3-09T06:43:17Z
2020-03-09T04:45:44Z,42.805,6.029,13.2994,4.60004,2470.04,2020-3-09T06:46:20Z
2020-03-09T04:48:47Z,42.805,6.029,13.2988,4.59994,2470.063,2020-3-09T06:49:24Z
2020-03-09T04:51:50Z,42.805,6.029,13.2997,4.60013,2470.077,2020-3-09T06:52:27Z
2020-03-09T04:54:53Z,42.805,6.029,13.2988,4.59994,2470.077,2020-3-09T06:55:30Z
2020-03-09T04:57:57Z,42.805,6.029,13.2996,4.60001,2470.077,2020-3-09T06:58:33Z
2020-03-09T05:01:00Z,42.805,6.029,13.2990,4.60008,2470.063,2020-3-09T07:01:36Z
2020-03-09T05:04:03Z,42.805,6.029,13.3001,4.60009,2470.1,2020-3-09T07:04:40Z
2020-03-09T05:07:06Z,42.805,6.029,13.2984,4.60006,2470.063,2020-3-09T07:07:43Z
2020-03-09T05:10:09Z,42.805,6.029,13.2993,4.59998,2470.11,2020-3-09T07:10:46Z
2020-03-09T05:13:13Z,42.805,6.029,13.2990,4.60008,2470.087,2020-3-09T07:13:49Z
2020-03-09T05:16:16Z,42.805,6.029,13.3002,4.59996,2470.087,2020-3-09T07:16:53Z
2020-03-09T05:19:19Z,42.805,6.029,13.3000,4.60005,2470.1,2020-3-09T07:19:56Z
2020-03-09T05:22:22Z,42.805,6.029,13.3000,4.59996,2470.124,2020-3-09T07:22:59Z
2020-03-09T05:25:26Z,42.805,6.029,13.2990,4.60014,2470.11,2020-3-09T07:26:02Z
2020-03-09T05:28:29Z,42.805,6.029,13.3024,4.59999,2470.087,2020-3-09T07:29:06Z
2020-03-09T05:31:32Z,42.805,6.029,13.3025,4.60016,2470.124,2020-3-09T07:32:09Z
2020-03-09T05:34:35Z,42.805,6.029,13.2989,4.60005,2470.124,2020-3-09T07:35:12Z
2020-03-09T05:37:39Z,42.805,6.029,13.3011,4.59995,2470.11,2020-3-09T07:38:15Z
2020-03-09T05:40:42Z,42.805,6.029,13.2995,4.60002,2470.147,2020-3-09T07:41:18Z
2020-03-09T05:43:45Z,42.805,6.029,13.2983,4.60002,2470.124,2020-3-09T07:44:22Z
2020-03-09T05:46:48Z,42.805,6.029,13.2993,4.59996,2470.147,2020-3-09T07:47:25Z
2020-03-09T05:49:51Z,42.805,6.029,13.2990,4.59990,2470.171,2020-3-09T07:50:28Z
2020-03-09T05:52:55Z,42.805,6.029,13.2988,4.59996,2470.11,2020-3-09T07:53:31Z
2020-03-09T05:55:58Z,42.805,6.029,13.2984,4.60002,2470.156,2020-3-09T07:56:35Z
2020-03-09T05:59:01Z,42.805,6.029,13.2975,4.60010,2470.147,2020-3-09T07:59:38Z
2020-03-09T06:02:05Z,42.805,6.029,13.2993,4.59991,2470.11,2020-3-09T08:02:41Z
2020-03-09T06:05:08Z,42.805,6.029,13.2993,4.59998,2470.156,2020-3-09T08:05:45Z
2020-03-09T06:08:11Z,42.805,6.029,13.2994,4.60010,2470.147,2020-3-09T08:08:48Z
2020-03-09T06:11:14Z,42.805,6.029,13.3035,4.59999,2470.11,2020-3-09T08:11:51Z
2020-03-09T06:14:18Z,42.805,6.029,13.3000,4.60017,2470.161,2020-3-09T08:14:54Z
2020-03-09T06:17:21Z,42.805,6.029,13.2976,4.60011,2470.133,2020-3-09T08:17:57Z
2020-03-09T06:20:24Z,42.805,6.029,13.2967,4.59991,2470.133,2020-3-09T08:21:01Z
2020-03-09T06:23:27Z,42.805,6.029,13.3005,4.60006,2470.133,2020-3-09T08:24:04Z
2020-03-09T06:26:30Z,42.805,6.029,13.2971,4.59994,2470.119,2020-3-09T08:27:07Z
2020-03-09T06:29:34Z,42.805,6.029,13.2968,4.60000,2470.133,2020-3-09T08:30:10Z
2020-03-09T06:32:37Z,42.805,6.029,13.2968,4.60003,2470.133,2020-3-09T08:33:14Z
2020-03-09T06:35:40Z,42.805,6.029,13.2974,4.59988,2470.124,2020-3-09T08:36:17Z
2020-03-09T06:38:43Z,42.805,6.029,13.2968,4.59991,2470.133,2020-3-09T08:39:20Z
2020-03-09T06:41:46Z,42.805,6.029,13.2968,4.59983,2470.133,2020-3-09T08:42:23Z
2020-03-09T06:44:50Z,42.805,6.029,13.2967,4.59981,2470.133,2020-3-09T08:45:26Z
2020-03-09T06:47:53Z,42.805,6.029,13.2969,4.59978,2470.194,2020-3-09T08:48:30Z
2020-03-09T06:50:56Z,42.805,6.029,13.2966,4.60007,2470.171,2020-3-09T08:51:33Z
2020-03-09T06:53:59Z,42.805,6.029,13.2971,4.59989,2470.156,2020-3-09T08:54:36Z
2020-03-09T06:57:03Z,42.805,6.029,13.2964,4.59989,2470.133,2020-3-09T08:57:39Z
2020-03-09T07:00:06Z,42.805,6.029,13.2961,4.59976,2470.156,2020-3-09T09:00:42Z
2020-03-09T07:03:09Z,42.805,6.029,13.2970,4.59976,2470.156,2020-3-09T09:03:46Z
2020-03-09T07:06:12Z,42.805,6.029,13.2965,4.59976,2470.156,2020-3-09T09:06:49Z
2020-03-09T07:09:15Z,42.805,6.029,13.2968,4.59972,2470.156,2020-3-09T09:09:52Z
2020-03-09T07:12:19Z,42.805,6.029,13.2967,4.59976,2470.133,2020-3-09T09:12:55Z
2020-03-09T07:15:22Z,42.805,6.029,13.2968,4.59975,2470.194,2020-3-09T09:15:59Z
2020-03-09T07:18:25Z,42.805,6.029,13.2964,4.59980,2470.171,2020-3-09T09:19:02Z
2020-03-09T07:21:28Z,42.805,6.029,13.2967,4.59980,2470.171,2020-3-09T09:22:05Z
2020-03-09T07:24:32Z,42.805,6.029,13.2968,4.59972,2470.11,2020-3-09T09:25:08Z
2020-03-09T07:27:35Z,42.805,6.029,13.2966,4.59970,2470.171,2020-3-09T09:28:11Z
2020-03-09T07:30:38Z,42.805,6.029,13.2966,4.59973,2470.156,2020-3-09T09:31:15Z
2020-03-09T07:33:41Z,42.805,6.029,13.2965,4.59973,2470.147,2020-3-09T09:34:18Z
2020-03-09T07:36:44Z,42.805,6.029,13.2965,4.59972,2470.147,2020-3-09T09:37:21Z
2020-03-09T07:39:47Z,42.805,6.029,13.2964,4.59972,2470.124,2020-3-09T09:40:24Z
2020-03-09T07:42:51Z,42.805,6.029,13.2967,4.59974,2470.156,2020-3-09T09:43:27Z
2020-03-09T07:45:54Z,42.805,6.029,13.2968,4.59973,2470.124,2020-3-09T09:46:31Z
2020-03-09T07:48:57Z,42.805,6.029,13.2968,4.59980,2470.156,2020-3-09T09:49:34Z
2020-03-09T07:52:00Z,42.805,6.029,13.2964,4.59981,2470.133,2020-3-09T09:52:37Z
2020-03-09T07:55:03Z,42.805,6.029,13.2966,4.59973,2470.156,2020-3-09T09:55:40Z
2020-03-09T07:58:07Z,42.805,6.029,13.2965,4.59973,2470.171,2020-3-09T09:58:43Z
2020-03-09T08:01:10Z,42.805,6.029,13.2965,4.59972,2470.133,2020-3-09T10:01:47Z
2020-03-09T08:04:13Z,42.805,6.029,13.2971,4.59972,2470.156,2020-3-09T10:04:50Z
2020-03-09T08:07:17Z,42.805,6.029,13.2967,4.59971,2470.119,2020-3-09T10:07:53Z
2020-03-09T08:10:20Z,42.805,6.029,13.2967,4.59973,2470.133,2020-3-09T10:10:57Z
2020-03-09T08:13:24Z,42.805,6.029,13.2969,4.59976,2470.124,2020-3-09T10:14:00Z
2020-03-09T08:16:27Z,42.805,6.029,13.2968,4.59971,2470.171,2020-3-09T10:17:03Z
2020-03-09T08:19:30Z,42.805,6.029,13.2965,4.59977,2470.133,2020-3-09T10:20:07Z
2020-03-09T08:22:33Z,42.805,6.029,13.2968,4.59971,2470.147,2020-3-09T10:23:10Z
2020-03-09T08:25:37Z,42.805,6.029,13.2966,4.59975,2470.147,2020-3-09T10:26:13Z
2020-03-09T08:28:40Z,42.805,6.029,13.2967,4.59983,2470.133,2020-3-09T10:29:17Z
2020-03-09T08:31:43Z,42.805,6.029,13.2968,4.59976,2470.156,2020-3-09T10:32:20Z
2020-03-09T08:34:46Z,42.805,6.029,13.2964,4.59986,2470.156,2020-3-09T10:35:23Z
2020-03-09T08:37:50Z,42.805,6.029,13.2967,4.59984,2470.171,2020-3-09T10:38:26Z
2020-03-09T08:40:53Z,42.805,6.029,13.2967,4.59988,2470.133,2020-3-09T10:41:30Z
2020-03-09T08:43:56Z,42.805,6.029,13.2967,4.59983,2470.133,2020-3-09T10:44:33Z
2020-03-09T08:46:59Z,42.805,6.029,13.2966,4.59974,2470.133,2020-3-09T10:47:36Z
2020-03-09T08:50:03Z,42.805,6.029,13.2966,4.59979,2470.124,2020-3-09T10:50:39Z
2020-03-09T08:53:06Z,42.805,6.029,13.2968,4.59972,2470.147,2020-3-09T10:53:43Z
2020-03-09T08:56:09Z,42.805,6.029,13.2967,4.59983,2470.1,2020-3-09T10:56:46Z
2020-03-09T08:59:12Z,42.805,6.029,13.2964,4.59998,2470.063,2020-3-09T10:59:49Z
2020-03-09T09:02:16Z,42.805,6.029,13.2968,4.59982,2470.124,2020-3-09T11:02:52Z
2020-03-09T09:05:19Z,42.805,6.029,13.2965,4.59982,2470.11,2020-3-09T11:05:55Z
2020-03-09T09:08:22Z,42.805,6.029,13.2967,4.59988,2470.11,2020-3-09T11:08:59Z
2020-03-09T09:11:25Z,42.805,6.029,13.2969,4.59976,2470.087,2020-3-09T11:12:02Z
2020-03-09T09:14:28Z,42.805,6.029,13.2971,4.59986,2470.11,2020-3-09T11:15:05Z
2020-03-09T09:17:32Z,42.805,6.029,13.2968,4.59986,2470.124,2020-3-09T11:18:08Z
2020-03-09T09:20:35Z,42.805,6.029,13.2968,4.59988,2470.087,2020-3-09T11:21:12Z
2020-03-09T09:23:38Z,42.805,6.029,13.2973,4.60021,2470.1,2020-3-09T11:24:15Z
2020-03-09T09:26:42Z,42.805,6.029,13.2970,4.59991,2470.1,2020-3-09T11:27:18Z
2020-03-09T09:29:45Z,42.805,6.029,13.2973,4.59996,2470.087,2020-3-09T11:30:21Z
2020-03-09T09:32:48Z,42.805,6.029,13.2969,4.60000,2470.11,2020-3-09T11:33:25Z
2020-03-09T09:35:51Z,42.805,6.029,13.2971,4.59978,2470.124,2020-3-09T11:36:28Z
2020-03-09T09:38:55Z,42.805,6.029,13.2968,4.59981,2470.087,2020-3-09T11:39:31Z
2020-03-09T09:41:58Z,42.805,6.029,13.2968,4.59990,2470.1,2020-3-09T11:42:34Z
2020-03-09T09:45:01Z,42.805,6.029,13.2968,4.59988,2470.1,2020-3-09T11:45:38Z
2020-03-09T09:48:04Z,42.805,6.029,13.2967,4.60007,2470.04,2020-3-09T11:48:41Z
2020-03-09T09:51:08Z,42.805,6.029,13.2968,4.60004,2470.087,2020-3-09T11:51:44Z
2020-03-09T09:54:11Z,42.805,6.029,13.2964,4.59973,2470.063,2020-3-09T11:54:47Z
2020-03-09T09:57:14Z,42.805,6.029,13.2964,4.59974,2470.087,2020-3-09T11:57:51Z
2020-03-09T10:00:17Z,42.805,6.029,13.2967,4.59983,2470.063,2020-3-09T12:00:54Z
2020-03-09T10:03:20Z,42.805,6.029,13.2965,4.59986,2470.1,2020-3-09T12:03:57Z
2020-03-09T10:06:24Z,42.805,6.029,13.2967,4.59983,2470.1,2020-3-09T12:07:00Z
2020-03-09T10:09:27Z,42.805,6.029,13.2968,4.59987,2470.04,2020-3-09T12:10:04Z
2020-03-09T10:12:30Z,42.805,6.029,13.2968,4.59984,2470.053,2020-3-09T12:13:07Z
2020-03-09T10:15:33Z,42.805,6.029,13.2968,4.59984,2470.063,2020-3-09T12:16:10Z
2020-03-09T10:18:37Z,42.805,6.029,13.2974,4.59980,2470.053,2020-3-09T12:19:13Z
2020-03-09T10:21:40Z,42.805,6.029,13.2980,4.59978,2470.053,2020-3-09T12:22:16Z
2020-03-09T10:24:43Z,42.805,6.029,13.2977,4.59983,2470.063,2020-3-09T12:25:20Z
2020-03-09T10:27:46Z,42.805,6.029,13.2992,4.60011,2470.053,2020-3-09T12:28:23Z
2020-03-09T10:30:50Z,42.805,6.029,13.2993,4.60011,2470.03,2020-3-09T12:31:26Z
2020-03-09T10:33:53Z,42.805,6.029,13.3015,4.59990,2470.04,2020-3-09T12:34:29Z
2020-03-09T10:36:56Z,42.805,6.029,13.3000,4.60029,2470.017,2020-3-09T12:37:33Z
2020-03-09T10:39:59Z,42.805,6.029,13.3021,4.59990,2470.017,2020-3-09T12:40:36Z
2020-03-09T10:43:02Z,42.805,6.029,13.3009,4.60007,2470.017,2020-3-09T12:43:39Z
2020-03-09T10:46:06Z,42.805,6.029,13.2998,4.60044,2470.04,2020-3-09T12:46:42Z
2020-03-09T10:49:09Z,42.805,6.029,13.3011,4.60032,2469.993,2020-3-09T12:49:46Z
2020-03-09T10:52:12Z,42.805,6.029,13.3010,4.60044,2469.993,2020-3-09T12:52:49Z
2020-03-09T10:55:16Z,42.805,6.029,13.3011,4.60044,2470.04,2020-3-09T12:55:52Z
2020-03-09T10:58:19Z,42.805,6.029,13.2997,4.60055,2470.03,2020-3-09T12:58:56Z
2020-03-09T11:01:23Z,42.805,6.029,13.3001,4.60028,2470.03,2020-3-09T13:01:59Z
2020-03-09T11:04:26Z,42.805,6.029,13.2997,4.60013,2470.03,2020-3-09T13:05:02Z
2020-03-09T11:07:29Z,42.805,6.029,13.3000,4.60007,2470.03,2020-3-09T13:08:06Z
2020-03-09T11:10:32Z,42.805,6.029,13.3007,4.60015,2470.03,2020-3-09T13:11:09Z
2020-03-09T11:13:35Z,42.805,6.029,13.2976,4.60020,2469.993,2020-3-09T13:14:12Z
2020-03-09T11:16:39Z,42.805,6.029,13.2991,4.60032,2470.007,2020-3-09T13:17:15Z
2020-03-09T11:19:42Z,42.805,6.029,13.2993,4.60034,2469.97,2020-3-09T13:20:18Z
2020-03-09T11:22:45Z,42.805,6.029,13.2981,4.60043,2469.97,2020-3-09T13:23:22Z
2020-03-09T11:25:48Z,42.805,6.029,13.2982,4.60022,2469.993,2020-3-09T13:26:25Z
2020-03-09T11:28:51Z,42.805,6.029,13.2992,4.60044,2469.984,2020-3-09T13:29:28Z
2020-03-09T11:31:55Z,42.805,6.029,13.3002,4.60062,2470.007,2020-3-09T13:32:31Z
2020-03-09T11:34:58Z,42.805,6.029,13.2983,4.60040,2469.947,2020-3-09T13:35:35Z
2020-03-09T11:38:01Z,42.805,6.029,13.2994,4.60041,2469.984,2020-3-09T13:38:38Z
2020-03-09T11:41:04Z,42.805,6.029,13.3000,4.60039,2469.984,2020-3-09T13:41:41Z
2020-03-09T11:44:08Z,42.805,6.029,13.3004,4.60036,2469.97,2020-3-09T13:44:44Z
2020-03-09T11:47:11Z,42.805,6.029,13.2996,4.60076,2469.993,2020-3-09T13:47:47Z
2020-03-09T11:50:14Z,42.805,6.029,13.3002,4.60069,2469.984,2020-3-09T13:50:51Z
2020-03-09T11:53:17Z,42.805,6.029,13.3011,4.60044,2469.984,2020-3-09T13:53:54Z
2020-03-09T11:56:20Z,42.805,6.029,13.2983,4.60048,2469.937,2020-3-09T13:56:57Z
2020-03-09T11:59:24Z,42.805,6.029,13.2988,4.60069,2469.947,2020-3-09T14:00:00Z
2020-03-09T12:02:27Z,42.805,6.029,13.2991,4.60051,2469.993,2020-3-09T14:03:03Z
2020-03-09T12:05:30Z,42.805,6.029,13.2995,4.60051,2469.947,2020-3-09T14:06:07Z
2020-03-09T12:08:33Z,42.805,6.029,13.3000,4.60060,2469.914,2020-3-09T14:09:10Z
2020-03-09T12:11:36Z,42.805,6.029,13.2997,4.60064,2469.947,2020-3-09T14:12:13Z
2020-03-09T12:14:40Z,42.805,6.029,13.2996,4.60057,2469.923,2020-3-09T14:15:16Z
2020-03-09T12:17:43Z,42.805,6.029,13.2985,4.60052,2469.923,2020-3-09T14:18:19Z
2020-03-09T12:20:46Z,42.805,6.029,13.2990,4.60038,2469.914,2020-3-09T14:21:23Z
2020-03-09T12:23:49Z,42.805,6.029,13.2993,4.60045,2469.937,2020-3-09T14:24:26Z
2020-03-09T12:26:52Z,42.805,6.029,13.2998,4.60035,2469.914,2020-3-09T14:27:29Z
2020-03-09T12:29:56Z,42.805,6.029,13.2990,4.60036,2469.947,2020-3-09T14:30:32Z
2020-03-09T12:32:59Z,42.805,6.029,13.2983,4.60037,2469.923,2020-3-09T14:33:36Z
2020-03-09T12:36:02Z,42.805,6.029,13.2979,4.60023,2469.947,2020-3-09T14:36:39Z
2020-03-09T12:39:05Z,42.805,6.029,13.2986,4.60014,2469.923,2020-3-09T14:39:42Z
2020-03-09T12:42:09Z,42.805,6.029,13.2981,4.60046,2469.937,2020-3-09T14:42:45Z
2020-03-09T12:45:12Z,42.805,6.029,13.2996,4.60031,2469.937,2020-3-09T14:45:48Z
2020-03-09T12:48:15Z,42.805,6.029,13.2981,4.60046,2469.876,2020-3-09T14:48:52Z
2020-03-09T12:51:18Z,42.805,6.029,13.2992,4.60016,2469.9,2020-3-09T14:51:55Z
2020-03-09T12:54:21Z,42.805,6.029,13.2983,4.60036,2469.923,2020-3-09T14:54:58Z
2020-03-09T12:57:25Z,42.805,6.029,13.2990,4.60044,2469.9,2020-3-09T14:58:01Z
2020-03-09T13:00:28Z,42.805,6.029,13.2998,4.60018,2469.9,2020-3-09T15:01:04Z
2020-03-09T13:03:31Z,42.805,6.029,13.2991,4.60057,2469.914,2020-3-09T15:04:08Z
2020-03-09T13:06:34Z,42.805,6.029,13.2982,4.60028,2469.937,2020-3-09T15:07:11Z
2020-03-09T13:09:37Z,42.805,6.029,13.2979,4.60016,2469.89,2020-3-09T15:10:14Z
2020-03-09T13:12:41Z,42.805,6.029,13.2990,4.60035,2469.914,2020-3-09T15:13:17Z
2020-03-09T13:15:44Z,42.805,6.029,13.2990,4.60027,2469.9,2020-3-09T15:16:21Z
2020-03-09T13:18:47Z,42.805,6.029,13.3015,4.60036,2469.867,2020-3-09T15:19:24Z
2020-03-09T13:21:50Z,42.805,6.029,13.2982,4.60026,2469.914,2020-3-09T15:22:27Z
2020-03-09T13:24:54Z,42.805,6.029,13.2986,4.60060,2469.89,2020-3-09T15:25:30Z
2020-03-09T13:27:57Z,42.805,6.029,13.2998,4.60076,2469.89,2020-3-09T15:28:34Z
2020-03-09T13:31:00Z,42.805,6.029,13.2996,4.60054,2469.9,2020-3-09T15:31:37Z
2020-03-09T13:34:03Z,42.805,6.029,13.2999,4.60059,2469.89,2020-3-09T15:34:40Z
2020-03-09T13:37:06Z,42.805,6.029,13.2989,4.60045,2469.914,2020-3-09T15:37:43Z
2020-03-09T13:40:10Z,42.805,6.029,13.2993,4.60052,2469.89,2020-3-09T15:40:46Z
2020-03-09T13:43:13Z,42.805,6.029,13.3000,4.60087,2469.876,2020-3-09T15:43:49Z
2020-03-09T13:46:16Z,42.805,6.029,13.2998,4.60043,2469.914,2020-3-09T15:46:53Z
2020-03-09T13:49:19Z,42.805,6.029,13.2983,4.60017,2469.89,2020-3-09T15:49:56Z
2020-03-09T13:52:22Z,42.805,6.029,13.2985,4.60052,2469.89,2020-3-09T15:52:59Z
2020-03-09T13:55:26Z,42.805,6.029,13.3000,4.60044,2469.853,2020-3-09T15:56:02Z
2020-03-09T13:58:29Z,42.805,6.029,13.2979,4.60026,2469.853,2020-3-09T15:59:06Z
2020-03-09T14:01:32Z,42.805,6.029,13.2983,4.60025,2469.867,2020-3-09T16:02:09Z
2020-03-09T14:04:35Z,42.805,6.029,13.2982,4.60030,2469.867,2020-3-09T16:05:12Z
2020-03-09T14:07:39Z,42.805,6.029,13.3003,4.60057,2469.867,2020-3-09T16:08:15Z
2020-03-09T14:10:42Z,42.805,6.029,13.2999,4.60065,2469.844,2020-3-09T16:11:19Z
2020-03-09T14:13:45Z,42.805,6.029,13.3004,4.60025,2469.853,2020-3-09T16:14:22Z
2020-03-09T14:16:48Z,42.805,6.029,13.3004,4.60068,2469.853,2020-3-09T16:17:25Z
2020-03-09T14:19:52Z,42.805,6.029,13.3036,4.60025,2469.844,2020-3-09T16:20:28Z
2020-03-09T14:22:55Z,42.805,6.029,13.3043,4.60037,2469.853,2020-3-09T16:23:31Z
2020-03-09T14:25:58Z,42.805,6.029,13.3043,4.60049,2469.876,2020-3-09T16:26:35Z
2020-03-09T14:29:01Z,42.805,6.029,13.3039,4.60040,2469.83,2020-3-09T16:29:38Z
2020-03-09T14:32:05Z,42.805,6.029,13.3041,4.60038,2469.83,2020-3-09T16:32:41Z
2020-03-09T14:35:08Z,42.805,6.029,13.3024,4.60026,2469.876,2020-3-09T16:35:44Z
2020-03-09T14:38:11Z,42.805,6.029,13.3006,4.60060,2469.853,2020-3-09T16:38:48Z
2020-03-09T14:41:14Z,42.805,6.029,13.3020,4.60051,2469.876,2020-3-09T16:41:51Z
2020-03-09T14:44:17Z,42.805,6.029,13.3032,4.60038,2469.89,2020-3-09T16:44:54Z
2020-03-09T14:47:21Z,42.805,6.029,13.3027,4.60017,2469.876,2020-3-09T16:47:57Z
2020-03-09T14:50:24Z,42.805,6.029,13.3041,4.60029,2469.876,2020-3-09T16:51:00Z
2020-03-09T14:53:27Z,42.805,6.029,13.3042,4.60067,2469.89,2020-3-09T16:54:04Z
2020-03-09T14:56:30Z,42.805,6.029,13.3020,4.60041,2469.876,2020-3-09T16:57:07Z
2020-03-09T14:59:33Z,42.805,6.029,13.3033,4.60031,2469.867,2020-3-09T17:00:10Z
2020-03-09T15:02:37Z,42.805,6.029,13.3041,4.60034,2469.867,2020-3-09T17:03:13Z
2020-03-09T15:05:40Z,42.805,6.029,13.3033,4.60016,2469.876,2020-3-09T17:06:17Z
2020-03-09T15:08:43Z,42.805,6.029,13.3040,4.60089,2469.863,2020-3-09T17:09:20Z
2020-03-09T15:11:46Z,42.805,6.029,13.2995,4.60041,2469.89,2020-3-09T17:12:23Z
2020-03-09T15:14:49Z,42.805,6.029,13.3021,4.60022,2469.914,2020-3-09T17:15:26Z